Year,Month,Day,Hour,Minute,Value (Times are PST for windgust in km/hr)
2020,03,15,00,00,37.00
2020,03,15,00,01,32.20
2020,03,15,00,02,25.70
2020,03,15,00,03,38.60
2020,03,15,00,04,33.80
2020,03,15,00,05,20.90
2020,03,15,00,06,25.70
2020,03,15,00,07,25.70
2020,03,15,00,08,25.70
2020,03,15,00,09,33.80
2020,03,15,00,10,33.80
2020,03,15,00,11,38.60
2020,03,15,00,12,51.50
2020,03,15,00,13,33.80
2020,03,15,00,14,35.40
2020,03,15,00,15,29.00
2020,03,15,00,16,27.40
2020,03,15,00,17,32.20
2020,03,15,00,18,27.40
2020,03,15,00,19,38.60
2020,03,15,00,20,33.80
2020,03,15,00,21,37.00
2020,03,15,00,22,33.80
2020,03,15,00,23,38.60
2020,03,15,00,24,30.60
2020,03,15,00,25,24.20
2020,03,15,00,26,37.00
2020,03,15,00,27,49.90
2020,03,15,00,28,35.40
2020,03,15,00,29,35.40
2020,03,15,00,30,40.20
2020,03,15,00,31,38.60
2020,03,15,00,32,37.00
2020,03,15,00,33,25.70
2020,03,15,00,34,20.90
2020,03,15,00,35,17.70
2020,03,15,00,36,25.70
2020,03,15,00,37,32.20
2020,03,15,00,38,37.00
2020,03,15,00,39,30.60
2020,03,15,00,40,29.00
2020,03,15,00,41,32.20
2020,03,15,00,42,29.00
2020,03,15,00,43,35.40
2020,03,15,00,44,41.80
2020,03,15,00,45,19.30
2020,03,15,00,46,32.20
2020,03,15,00,47,35.40
2020,03,15,00,48,37.00
2020,03,15,00,49,32.20
2020,03,15,00,50,33.80
2020,03,15,00,51,37.00
2020,03,15,00,52,33.80
2020,03,15,00,53,27.40
2020,03,15,00,54,38.60
2020,03,15,00,55,29.00
2020,03,15,00,56,38.60
2020,03,15,00,57,33.80
2020,03,15,00,58,30.60
2020,03,15,00,59,30.60
2020,03,15,01,00,33.80
2020,03,15,01,01,33.80
2020,03,15,01,02,29.00
2020,03,15,01,03,19.30
2020,03,15,01,04,27.40
2020,03,15,01,05,32.20
2020,03,15,01,06,29.00
2020,03,15,01,07,27.40
2020,03,15,01,08,24.20
2020,03,15,01,09,25.70
2020,03,15,01,10,32.20
2020,03,15,01,11,27.40
2020,03,15,01,12,30.60
2020,03,15,01,13,30.60
2020,03,15,01,14,33.80
2020,03,15,01,15,33.80
2020,03,15,01,16,25.70
2020,03,15,01,17,33.80
2020,03,15,01,18,27.40
2020,03,15,01,19,30.60
2020,03,15,01,20,33.80
2020,03,15,01,21,37.00
2020,03,15,01,22,27.40
2020,03,15,01,23,30.60
2020,03,15,01,24,22.50
2020,03,15,01,25,17.70
2020,03,15,01,26,27.40
2020,03,15,01,27,32.20
2020,03,15,01,28,33.80
2020,03,15,01,29,35.40
2020,03,15,01,30,38.60
2020,03,15,01,31,37.00
2020,03,15,01,32,32.20
2020,03,15,01,33,30.60
2020,03,15,01,34,32.20
2020,03,15,01,35,24.20
2020,03,15,01,36,17.70
2020,03,15,01,37,22.50
2020,03,15,01,38,24.20
2020,03,15,01,39,25.70
2020,03,15,01,40,33.80
2020,03,15,01,41,24.20
2020,03,15,01,42,19.30
2020,03,15,01,43,22.50
2020,03,15,01,44,35.40
2020,03,15,01,45,27.40
2020,03,15,01,46,33.80
2020,03,15,01,47,29.00
2020,03,15,01,48,33.80
2020,03,15,01,49,32.20
2020,03,15,01,50,25.70
2020,03,15,01,51,27.40
2020,03,15,01,52,24.20
2020,03,15,01,53,29.00
2020,03,15,01,54,33.80
2020,03,15,01,55,25.70
2020,03,15,01,56,29.00
2020,03,15,01,57,30.60
2020,03,15,01,58,25.70
2020,03,15,01,59,32.20
2020,03,15,02,00,25.70
2020,03,15,02,01,35.40
2020,03,15,02,02,30.60
2020,03,15,02,03,22.50
2020,03,15,02,04,22.50
2020,03,15,02,05,25.70
2020,03,15,02,06,30.60
2020,03,15,02,07,24.20
2020,03,15,02,08,30.60
2020,03,15,02,09,24.20
2020,03,15,02,10,30.60
2020,03,15,02,11,33.80
2020,03,15,02,12,22.50
2020,03,15,02,13,20.90
2020,03,15,02,14,20.90
2020,03,15,02,15,19.30
2020,03,15,02,16,25.70
2020,03,15,02,17,27.40
2020,03,15,02,18,41.80
2020,03,15,02,19,30.60
2020,03,15,02,20,27.40
2020,03,15,02,21,30.60
2020,03,15,02,22,41.80
2020,03,15,02,23,37.00
2020,03,15,02,24,30.60
2020,03,15,02,25,27.40
2020,03,15,02,26,29.00
2020,03,15,02,27,19.30
2020,03,15,02,28,24.20
2020,03,15,02,29,24.20
2020,03,15,02,30,19.30
2020,03,15,02,31,30.60
2020,03,15,02,32,29.00
2020,03,15,02,33,22.50
2020,03,15,02,34,32.20
2020,03,15,02,35,40.20
2020,03,15,02,36,24.20
2020,03,15,02,37,20.90
2020,03,15,02,38,24.20
2020,03,15,02,39,35.40
2020,03,15,02,40,35.40
2020,03,15,02,41,25.70
2020,03,15,02,42,24.20
2020,03,15,02,43,35.40
2020,03,15,02,44,30.60
2020,03,15,02,45,40.20
2020,03,15,02,46,33.80
2020,03,15,02,47,25.70
2020,03,15,02,48,33.80
2020,03,15,02,49,35.40
2020,03,15,02,50,40.20
2020,03,15,02,51,27.40
2020,03,15,02,52,30.60
2020,03,15,02,53,37.00
2020,03,15,02,54,33.80
2020,03,15,02,55,27.40
2020,03,15,02,56,37.00
2020,03,15,02,57,32.20
2020,03,15,02,58,33.80
2020,03,15,02,59,37.00
2020,03,15,03,00,24.20
2020,03,15,03,01,35.40
2020,03,15,03,02,30.60
2020,03,15,03,03,29.00
2020,03,15,03,04,27.40
2020,03,15,03,05,30.60
2020,03,15,03,06,29.00
2020,03,15,03,07,35.40
2020,03,15,03,08,29.00
2020,03,15,03,09,33.80
2020,03,15,03,10,37.00
2020,03,15,03,11,32.20
2020,03,15,03,12,22.50
2020,03,15,03,13,32.20
2020,03,15,03,14,33.80
2020,03,15,03,15,35.40
2020,03,15,03,16,37.00
2020,03,15,03,17,33.80
2020,03,15,03,18,33.80
2020,03,15,03,19,25.70
2020,03,15,03,20,35.40
2020,03,15,03,21,27.40
2020,03,15,03,22,33.80
2020,03,15,03,23,32.20
2020,03,15,03,24,35.40
2020,03,15,03,25,40.20
2020,03,15,03,26,46.70
2020,03,15,03,27,46.70
2020,03,15,03,28,32.20
2020,03,15,03,29,30.60
2020,03,15,03,30,40.20
2020,03,15,03,31,46.70
2020,03,15,03,32,32.20
2020,03,15,03,33,32.20
2020,03,15,03,34,29.00
2020,03,15,03,35,43.50
2020,03,15,03,36,40.20
2020,03,15,03,37,25.70
2020,03,15,03,38,27.40
2020,03,15,03,39,24.20
2020,03,15,03,40,32.20
2020,03,15,03,41,35.40
2020,03,15,03,42,32.20
2020,03,15,03,43,35.40
2020,03,15,03,44,33.80
2020,03,15,03,45,30.60
2020,03,15,03,46,43.50
2020,03,15,03,47,37.00
2020,03,15,03,48,32.20
2020,03,15,03,49,32.20
2020,03,15,03,50,27.40
2020,03,15,03,51,25.70
2020,03,15,03,52,27.40
2020,03,15,03,53,22.50
2020,03,15,03,54,25.70
2020,03,15,03,55,40.20
2020,03,15,03,56,40.20
2020,03,15,03,57,32.20
2020,03,15,03,58,46.70
2020,03,15,03,59,40.20
2020,03,15,04,00,35.40
2020,03,15,04,01,32.20
2020,03,15,04,02,24.20
2020,03,15,04,03,27.40
2020,03,15,04,04,19.30
2020,03,15,04,05,24.20
2020,03,15,04,06,22.50
2020,03,15,04,07,22.50
2020,03,15,04,08,22.50
2020,03,15,04,09,27.40
2020,03,15,04,10,41.80
2020,03,15,04,11,27.40
2020,03,15,04,12,32.20
2020,03,15,04,13,25.70
2020,03,15,04,14,20.90
2020,03,15,04,15,22.50
2020,03,15,04,16,25.70
2020,03,15,04,17,14.50
2020,03,15,04,18,20.90
2020,03,15,04,19,37.00
2020,03,15,04,20,41.80
2020,03,15,04,21,33.80
2020,03,15,04,22,30.60
2020,03,15,04,23,22.50
2020,03,15,04,24,25.70
2020,03,15,04,25,25.70
2020,03,15,04,26,29.00
2020,03,15,04,27,32.20
2020,03,15,04,28,25.70
2020,03,15,04,29,29.00
2020,03,15,04,30,27.40
2020,03,15,04,31,24.20
2020,03,15,04,32,32.20
2020,03,15,04,33,30.60
2020,03,15,04,34,25.70
2020,03,15,04,35,32.20
2020,03,15,04,36,27.40
2020,03,15,04,37,16.10
2020,03,15,04,38,19.30
2020,03,15,04,39,25.70
2020,03,15,04,40,20.90
2020,03,15,04,41,19.30
2020,03,15,04,42,20.90
2020,03,15,04,43,25.70
2020,03,15,04,44,35.40
2020,03,15,04,45,29.00
2020,03,15,04,46,30.60
2020,03,15,04,47,38.60
2020,03,15,04,48,37.00
2020,03,15,04,49,25.70
2020,03,15,04,50,29.00
2020,03,15,04,51,29.00
2020,03,15,04,52,29.00
2020,03,15,04,53,20.90
2020,03,15,04,54,24.20
2020,03,15,04,55,22.50
2020,03,15,04,56,17.70
2020,03,15,04,57,30.60
2020,03,15,04,58,29.00
2020,03,15,04,59,20.90
2020,03,15,05,00,27.40
2020,03,15,05,01,33.80
2020,03,15,05,02,20.90
2020,03,15,05,03,20.90
2020,03,15,05,04,20.90
2020,03,15,05,05,20.90
2020,03,15,05,06,20.90
2020,03,15,05,07,20.90
2020,03,15,05,08,20.90
2020,03,15,05,09,20.90
2020,03,15,05,10,20.90
2020,03,15,05,11,20.90
2020,03,15,08,00,24.20
2020,03,15,08,01,29.00
2020,03,15,08,02,27.40
2020,03,15,08,03,25.70
2020,03,15,08,04,20.90
2020,03,15,08,05,20.90
2020,03,15,08,06,19.30
2020,03,15,08,07,20.90
2020,03,15,08,08,20.90
2020,03,15,08,09,25.70
2020,03,15,08,10,22.50
2020,03,15,08,11,19.30
2020,03,15,08,12,22.50
2020,03,15,08,13,19.30
2020,03,15,08,14,24.20
2020,03,15,08,15,22.50
2020,03,15,08,16,20.90
2020,03,15,08,17,20.90
2020,03,15,08,18,22.50
2020,03,15,08,19,24.20
2020,03,15,08,20,17.70
2020,03,15,08,21,19.30
2020,03,15,08,22,19.30
2020,03,15,08,23,22.50
2020,03,15,08,24,19.30
2020,03,15,08,25,16.10
2020,03,15,08,26,19.30
2020,03,15,08,27,17.70
2020,03,15,08,28,14.50
2020,03,15,08,29,27.40
2020,03,15,08,30,22.50
2020,03,15,08,31,25.70
2020,03,15,08,32,24.20
2020,03,15,08,33,24.20
2020,03,15,08,34,20.90
2020,03,15,08,35,14.50
2020,03,15,08,36,16.10
2020,03,15,08,37,20.90
2020,03,15,08,38,29.00
2020,03,15,08,39,16.10
2020,03,15,08,40,19.30
2020,03,15,08,41,22.50
2020,03,15,08,42,29.00
2020,03,15,08,43,22.50
2020,03,15,08,44,25.70
2020,03,15,08,45,29.00
2020,03,15,08,46,25.70
2020,03,15,08,47,25.70
2020,03,15,08,48,25.70
2020,03,15,08,49,19.30
2020,03,15,08,50,24.20
2020,03,15,08,51,33.80
2020,03,15,08,52,29.00
2020,03,15,08,53,30.60
2020,03,15,08,54,25.70
2020,03,15,08,55,25.70
2020,03,15,08,56,24.20
2020,03,15,08,57,25.70
2020,03,15,08,58,25.70
2020,03,15,08,59,27.40
2020,03,15,09,00,20.90
2020,03,15,09,01,22.50
2020,03,15,09,02,22.50
2020,03,15,09,03,20.90
2020,03,15,09,04,37.00
2020,03,15,09,05,29.00
2020,03,15,09,06,25.70
2020,03,15,09,07,32.20
2020,03,15,09,08,32.20
2020,03,15,09,09,33.80
2020,03,15,09,10,40.20
2020,03,15,09,11,37.00
2020,03,15,09,12,33.80
2020,03,15,09,13,30.60
2020,03,15,09,14,25.70
2020,03,15,09,15,24.20
2020,03,15,09,16,27.40
2020,03,15,09,17,27.40
2020,03,15,09,18,24.20
2020,03,15,09,19,17.70
2020,03,15,09,20,19.30
2020,03,15,09,21,24.20
2020,03,15,09,22,29.00
2020,03,15,09,23,27.40
2020,03,15,09,24,24.20
2020,03,15,09,25,24.20
2020,03,15,09,26,35.40
2020,03,15,09,27,35.40
2020,03,15,09,28,37.00
2020,03,15,09,29,29.00
2020,03,15,09,30,35.40
2020,03,15,09,31,27.40
2020,03,15,09,32,33.80
2020,03,15,09,33,35.40
2020,03,15,09,34,25.70
2020,03,15,09,35,25.70
2020,03,15,09,36,32.20
2020,03,15,09,37,32.20
2020,03,15,09,38,32.20
2020,03,15,09,39,33.80
2020,03,15,09,40,38.60
2020,03,15,09,41,32.20
2020,03,15,09,42,27.40
2020,03,15,09,43,30.60
2020,03,15,09,44,40.20
2020,03,15,09,45,37.00
2020,03,15,09,46,33.80
2020,03,15,09,47,33.80
2020,03,15,09,48,37.00
2020,03,15,09,49,32.20
2020,03,15,09,50,35.40
2020,03,15,09,51,32.20
2020,03,15,09,52,27.40
2020,03,15,09,53,20.90
2020,03,15,09,54,25.70
2020,03,15,09,55,37.00
2020,03,15,09,56,35.40
2020,03,15,09,57,22.50
2020,03,15,09,58,40.20
2020,03,15,09,59,40.20
2020,03,15,10,00,32.20
2020,03,15,10,01,27.40
2020,03,15,10,02,25.70
2020,03,15,10,03,38.60
2020,03,15,10,04,32.20
2020,03,15,10,05,32.20
2020,03,15,10,06,22.50
2020,03,15,10,07,35.40
2020,03,15,10,08,37.00
2020,03,15,10,09,22.50
2020,03,15,10,10,35.40
2020,03,15,10,11,27.40
2020,03,15,10,12,24.20
2020,03,15,10,13,25.70
2020,03,15,10,14,27.40
2020,03,15,10,15,32.20
2020,03,15,10,16,25.70
2020,03,15,10,17,27.40
2020,03,15,10,18,32.20
2020,03,15,10,19,41.80
2020,03,15,10,20,29.00
2020,03,15,10,21,37.00
2020,03,15,10,22,32.20
2020,03,15,10,23,33.80
2020,03,15,10,24,32.20
2020,03,15,10,25,27.40
2020,03,15,10,26,20.90
2020,03,15,10,27,19.30
2020,03,15,10,28,22.50
2020,03,15,10,29,30.60
2020,03,15,10,30,29.00
2020,03,15,10,31,17.70
2020,03,15,10,32,20.90
2020,03,15,10,33,22.50
2020,03,15,10,34,19.30
2020,03,15,10,35,24.20
2020,03,15,10,36,38.60
2020,03,15,10,37,33.80
2020,03,15,10,38,24.20
2020,03,15,10,39,25.70
2020,03,15,10,40,17.70
2020,03,15,10,41,27.40
2020,03,15,10,42,14.50
2020,03,15,10,43,25.70
2020,03,15,10,44,30.60
2020,03,15,10,45,29.00
2020,03,15,10,46,33.80
2020,03,15,10,47,22.50
2020,03,15,10,48,24.20
2020,03,15,10,49,16.10
2020,03,15,10,50,25.70
2020,03,15,10,51,37.00
2020,03,15,10,52,32.20
2020,03,15,10,53,25.70
2020,03,15,10,54,20.90
2020,03,15,10,55,29.00
2020,03,15,10,56,29.00
2020,03,15,10,57,27.40
2020,03,15,10,58,27.40
2020,03,15,10,59,32.20
2020,03,15,11,00,25.70
2020,03,15,11,01,30.60
2020,03,15,11,02,24.20
2020,03,15,11,03,25.70
2020,03,15,11,04,29.00
2020,03,15,11,05,30.60
2020,03,15,11,06,25.70
2020,03,15,11,07,24.20
2020,03,15,11,08,27.40
2020,03,15,11,09,20.90
2020,03,15,11,10,19.30
2020,03,15,11,11,27.40
2020,03,15,11,12,30.60
2020,03,15,11,13,27.40
2020,03,15,11,14,37.00
2020,03,15,11,15,32.20
2020,03,15,11,16,30.60
2020,03,15,11,17,29.00
2020,03,15,11,18,27.40
2020,03,15,11,19,20.90
2020,03,15,11,20,24.20
2020,03,15,11,21,24.20
2020,03,15,11,22,32.20
2020,03,15,11,23,20.90
2020,03,15,11,24,22.50
2020,03,15,11,25,30.60
2020,03,15,11,26,25.70
2020,03,15,11,27,30.60
2020,03,15,11,28,30.60
2020,03,15,11,29,25.70
2020,03,15,11,30,19.30
2020,03,15,11,31,20.90
2020,03,15,11,32,25.70
2020,03,15,11,33,32.20
2020,03,15,11,34,27.40
2020,03,15,11,35,12.90
2020,03,15,11,36,22.50
2020,03,15,11,37,19.30
2020,03,15,11,38,14.50
2020,03,15,11,39,24.20
2020,03,15,11,40,29.00
2020,03,15,11,41,27.40
2020,03,15,11,42,25.70
2020,03,15,11,43,16.10
2020,03,15,11,44,17.70
2020,03,15,11,45,17.70
2020,03,15,11,46,24.20
2020,03,15,11,47,27.40
2020,03,15,11,48,20.90
2020,03,15,11,49,22.50
2020,03,15,11,50,30.60
2020,03,15,11,51,29.00
2020,03,15,11,52,19.30
2020,03,15,11,53,20.90
2020,03,15,11,54,20.90
2020,03,15,11,55,24.20
2020,03,15,11,56,22.50
2020,03,15,11,57,33.80
2020,03,15,11,58,29.00
2020,03,15,11,59,29.00
2020,03,15,12,00,30.60
2020,03,15,12,01,27.40
2020,03,15,12,02,30.60
2020,03,15,12,03,22.50
2020,03,15,12,04,22.50
2020,03,15,12,05,17.70
2020,03,15,12,06,29.00
2020,03,15,12,07,25.70
2020,03,15,12,08,24.20
2020,03,15,12,09,27.40
2020,03,15,12,10,22.50
2020,03,15,12,11,20.90
2020,03,15,12,12,24.20
2020,03,15,12,13,30.60
2020,03,15,12,14,27.40
2020,03,15,12,15,27.40
2020,03,15,12,16,24.20
2020,03,15,12,17,27.40
2020,03,15,12,18,29.00
2020,03,15,12,19,32.20
2020,03,15,12,20,27.40
2020,03,15,12,21,27.40
2020,03,15,12,22,22.50
2020,03,15,12,23,27.40
2020,03,15,12,24,19.30
2020,03,15,12,25,22.50
2020,03,15,12,26,22.50
2020,03,15,12,27,25.70
2020,03,15,12,28,17.70
2020,03,15,12,29,25.70
2020,03,15,12,30,29.00
2020,03,15,12,31,22.50
2020,03,15,12,32,24.20
2020,03,15,12,33,27.40
2020,03,15,12,34,29.00
2020,03,15,12,35,24.20
2020,03,15,12,36,24.20
2020,03,15,12,37,24.20
2020,03,15,12,38,25.70
2020,03,15,12,39,25.70
2020,03,15,12,40,29.00
2020,03,15,12,41,29.00
2020,03,15,12,42,29.00
2020,03,15,12,43,32.20
2020,03,15,12,44,29.00
2020,03,15,12,45,29.00
2020,03,15,12,46,27.40
2020,03,15,12,47,30.60
2020,03,15,12,48,22.50
2020,03,15,12,49,29.00
2020,03,15,12,50,27.40
2020,03,15,12,51,22.50
2020,03,15,12,52,25.70
2020,03,15,12,53,24.20
2020,03,15,12,54,22.50
2020,03,15,12,55,24.20
2020,03,15,12,56,27.40
2020,03,15,12,57,27.40
2020,03,15,12,58,33.80
2020,03,15,12,59,27.40
2020,03,15,13,00,29.00
2020,03,15,13,01,25.70
2020,03,15,13,02,22.50
2020,03,15,13,03,22.50
2020,03,15,13,04,16.10
2020,03,15,13,05,20.90
2020,03,15,13,06,25.70
2020,03,15,13,07,22.50
2020,03,15,13,08,25.70
2020,03,15,13,09,19.30
2020,03,15,13,10,20.90
2020,03,15,13,11,29.00
2020,03,15,13,12,25.70
2020,03,15,13,13,16.10
2020,03,15,13,14,14.50
2020,03,15,13,15,19.30
2020,03,15,13,16,17.70
2020,03,15,13,17,20.90
2020,03,15,13,18,9.60
2020,03,15,13,19,17.70
2020,03,15,13,20,12.90
2020,03,15,13,21,19.30
2020,03,15,13,22,16.10
2020,03,15,13,23,19.30
2020,03,15,13,24,22.50
2020,03,15,13,25,17.70
2020,03,15,13,26,19.30
2020,03,15,13,27,24.20
2020,03,15,13,28,20.90
2020,03,15,13,29,24.20
2020,03,15,13,30,19.30
2020,03,15,13,31,25.70
2020,03,15,13,32,20.90
2020,03,15,13,33,16.10
2020,03,15,13,34,25.70
2020,03,15,13,35,22.50
2020,03,15,13,36,25.70
2020,03,15,13,37,20.90
2020,03,15,13,38,16.10
2020,03,15,13,39,16.10
2020,03,15,13,40,22.50
2020,03,15,13,41,17.70
2020,03,15,13,42,19.30
2020,03,15,13,43,20.90
2020,03,15,13,44,17.70
2020,03,15,13,45,19.30
2020,03,15,13,46,17.70
2020,03,15,13,47,27.40
2020,03,15,13,48,22.50
2020,03,15,13,49,25.70
2020,03,15,13,50,20.90
2020,03,15,13,51,29.00
2020,03,15,13,52,24.20
2020,03,15,13,53,22.50
2020,03,15,13,54,20.90
2020,03,15,13,55,24.20
2020,03,15,13,56,25.70
2020,03,15,13,57,25.70
2020,03,15,13,58,22.50
2020,03,15,13,59,27.40
2020,03,15,14,00,25.70
2020,03,15,14,01,20.90
2020,03,15,14,02,19.30
2020,03,15,14,03,27.40
2020,03,15,14,04,24.20
2020,03,15,14,05,22.50
2020,03,15,14,06,24.20
2020,03,15,14,07,22.50
2020,03,15,14,08,22.50
2020,03,15,14,09,14.50
2020,03,15,14,10,24.20
2020,03,15,14,11,20.90
2020,03,15,14,12,19.30
2020,03,15,14,13,19.30
2020,03,15,14,14,22.50
2020,03,15,14,15,16.10
2020,03,15,14,16,19.30
2020,03,15,14,17,22.50
2020,03,15,14,18,20.90
2020,03,15,14,19,16.10
2020,03,15,14,20,24.20
2020,03,15,14,21,17.70
2020,03,15,14,22,19.30
2020,03,15,14,23,19.30
2020,03,15,14,24,14.50
2020,03,15,14,25,14.50
2020,03,15,14,26,19.30
2020,03,15,14,27,25.70
2020,03,15,14,28,17.70
2020,03,15,14,29,16.10
2020,03,15,14,30,29.00
2020,03,15,14,31,20.90
2020,03,15,14,32,24.20
2020,03,15,14,33,30.60
2020,03,15,14,34,17.70
2020,03,15,14,35,17.70
2020,03,15,14,36,11.30
2020,03,15,14,37,27.40
2020,03,15,14,38,19.30
2020,03,15,14,39,20.90
2020,03,15,14,40,22.50
2020,03,15,14,41,17.70
2020,03,15,14,42,11.30
2020,03,15,14,43,8.10
2020,03,15,14,44,4.80
2020,03,15,14,45,14.50
2020,03,15,14,46,24.20
2020,03,15,14,47,29.00
2020,03,15,14,48,27.40
2020,03,15,14,49,19.30
2020,03,15,14,50,17.70
2020,03,15,14,51,17.70
2020,03,15,14,52,20.90
2020,03,15,14,53,22.50
2020,03,15,14,54,17.70
2020,03,15,14,55,16.10
2020,03,15,14,56,20.90
2020,03,15,14,57,17.70
2020,03,15,14,58,14.50
2020,03,15,14,59,17.70
2020,03,15,15,00,9.60
2020,03,15,15,01,12.90
2020,03,15,15,02,17.70
2020,03,15,15,03,16.10
2020,03,15,15,04,19.30
2020,03,15,15,05,16.10
2020,03,15,15,06,17.70
2020,03,15,15,07,12.90
2020,03,15,15,08,3.20
2020,03,15,15,09,4.80
2020,03,15,15,10,12.90
2020,03,15,15,11,19.30
2020,03,15,15,12,22.50
2020,03,15,15,13,20.90
2020,03,15,15,14,19.30
2020,03,15,15,15,19.30
2020,03,15,15,16,20.90
2020,03,15,15,17,12.90
2020,03,15,15,18,12.90
2020,03,15,15,19,25.70
2020,03,15,15,20,17.70
2020,03,15,15,21,14.50
2020,03,15,15,22,12.90
2020,03,15,15,23,8.10
2020,03,15,15,24,8.10
2020,03,15,15,25,12.90
2020,03,15,15,26,14.50
2020,03,15,15,27,22.50
2020,03,15,15,28,20.90
2020,03,15,15,29,16.10
2020,03,15,15,30,19.30
2020,03,15,15,31,25.70
2020,03,15,15,32,25.70
2020,03,15,15,33,24.20
2020,03,15,15,34,16.10
2020,03,15,15,35,16.10
2020,03,15,15,36,19.30
2020,03,15,15,37,12.90
2020,03,15,15,38,17.70
2020,03,15,15,39,17.70
2020,03,15,15,40,17.70
2020,03,15,15,41,20.90
2020,03,15,15,42,16.10
2020,03,15,15,43,6.40
2020,03,15,15,44,8.10
2020,03,15,15,45,14.50
2020,03,15,15,46,6.40
2020,03,15,15,47,16.10
2020,03,15,15,48,17.70
2020,03,15,15,49,16.10
2020,03,15,15,50,19.30
2020,03,15,15,51,19.30
2020,03,15,15,52,17.70
2020,03,15,15,53,19.30
2020,03,15,15,54,14.50
2020,03,15,15,55,19.30
2020,03,15,15,56,17.70
2020,03,15,15,57,20.90
2020,03,15,15,58,20.90
2020,03,15,15,59,19.30
2020,03,15,16,00,16.10
2020,03,15,16,01,12.90
2020,03,15,16,02,19.30
2020,03,15,16,03,14.50
2020,03,15,16,04,22.50
2020,03,15,16,05,19.30
2020,03,15,16,06,14.50
2020,03,15,16,07,17.70
2020,03,15,16,08,16.10
2020,03,15,16,09,22.50
2020,03,15,16,10,17.70
2020,03,15,16,11,9.60
2020,03,15,16,12,9.60
2020,03,15,16,13,17.70
2020,03,15,16,14,9.60
2020,03,15,16,15,4.80
2020,03,15,16,16,9.60
2020,03,15,16,17,9.60
2020,03,15,16,18,11.30
2020,03,15,16,19,19.30
2020,03,15,16,20,17.70
2020,03,15,16,21,19.30
2020,03,15,16,22,17.70
2020,03,15,16,23,20.90
2020,03,15,16,24,19.30
2020,03,15,16,25,17.70
2020,03,15,16,26,14.50
2020,03,15,16,27,16.10
2020,03,15,16,28,17.70
2020,03,15,16,29,20.90
2020,03,15,16,30,17.70
2020,03,15,16,31,16.10
2020,03,15,16,32,17.70
2020,03,15,16,33,19.30
2020,03,15,16,34,17.70
2020,03,15,16,35,14.50
2020,03,15,16,36,11.30
2020,03,15,16,37,17.70
2020,03,15,16,38,22.50
2020,03,15,16,39,16.10
2020,03,15,16,40,17.70
2020,03,15,16,41,19.30
2020,03,15,16,42,12.90
2020,03,15,16,43,6.40
2020,03,15,16,44,12.90
2020,03,15,16,45,19.30
2020,03,15,16,46,16.10
2020,03,15,16,47,20.90
2020,03,15,16,48,20.90
2020,03,15,16,49,17.70
2020,03,15,16,50,14.50
2020,03,15,16,51,12.90
2020,03,15,16,52,14.50
2020,03,15,16,53,8.10
2020,03,15,16,54,14.50
2020,03,15,16,55,16.10
2020,03,15,16,56,19.30
2020,03,15,16,57,20.90
2020,03,15,16,58,19.30
2020,03,15,16,59,14.50
2020,03,15,17,00,17.70
2020,03,15,17,01,17.70
2020,03,15,17,02,19.30
2020,03,15,17,03,14.50
2020,03,15,17,04,12.90
2020,03,15,17,05,12.90
2020,03,15,17,06,14.50
2020,03,15,17,07,16.10
2020,03,15,17,08,14.50
2020,03,15,17,09,12.90
2020,03,15,17,10,6.40
2020,03,15,17,11,14.50
2020,03,15,17,12,12.90
2020,03,15,17,13,19.30
2020,03,15,17,14,14.50
2020,03,15,17,15,8.10
2020,03,15,17,16,9.60
2020,03,15,17,17,9.60
2020,03,15,17,18,9.60
2020,03,15,17,19,6.40
2020,03,15,17,20,9.60
2020,03,15,17,21,12.90
2020,03,15,17,22,14.50
2020,03,15,17,23,16.10
2020,03,15,17,24,9.60
2020,03,15,17,25,8.10
2020,03,15,17,26,9.60
2020,03,15,17,27,12.90
2020,03,15,17,28,11.30
2020,03,15,17,29,16.10
2020,03,15,17,30,9.60
2020,03,15,17,31,8.10
2020,03,15,17,32,16.10
2020,03,15,17,33,16.10
2020,03,15,17,34,17.70
2020,03,15,17,35,14.50
2020,03,15,17,36,17.70
2020,03,15,17,37,17.70
2020,03,15,17,38,17.70
2020,03,15,17,39,20.90
2020,03,15,17,40,16.10
2020,03,15,17,41,17.70
2020,03,15,17,42,14.50
2020,03,15,17,43,19.30
2020,03,15,17,44,19.30
2020,03,15,17,45,17.70
2020,03,15,17,46,16.10
2020,03,15,17,47,14.50
2020,03,15,17,48,16.10
2020,03,15,17,49,16.10
2020,03,15,17,50,16.10
2020,03,15,17,51,19.30
2020,03,15,17,52,22.50
2020,03,15,17,53,17.70
2020,03,15,17,54,17.70
2020,03,15,17,55,20.90
2020,03,15,17,56,14.50
2020,03,15,17,57,17.70
2020,03,15,17,58,14.50
2020,03,15,17,59,11.30
2020,03,15,18,00,14.50
2020,03,15,18,01,9.60
2020,03,15,18,02,16.10
2020,03,15,18,03,12.90
2020,03,15,18,04,8.10
2020,03,15,18,05,8.10
2020,03,15,18,06,6.40
2020,03,15,18,07,8.10
2020,03,15,18,08,8.10
2020,03,15,18,09,8.10
2020,03,15,18,10,9.60
2020,03,15,18,11,12.90
2020,03,15,18,12,16.10
2020,03,15,18,13,17.70
2020,03,15,18,14,19.30
2020,03,15,18,15,11.30
2020,03,15,18,16,11.30
2020,03,15,18,17,9.60
2020,03,15,18,18,12.90
2020,03,15,18,19,16.10
2020,03,15,18,20,16.10
2020,03,15,18,21,17.70
2020,03,15,18,22,16.10
2020,03,15,18,23,16.10
2020,03,15,18,24,16.10
2020,03,15,18,25,16.10
2020,03,15,18,26,16.10
2020,03,15,18,27,17.70
2020,03,15,18,28,16.10
2020,03,15,18,29,14.50
2020,03,15,18,30,9.60
2020,03,15,18,31,12.90
2020,03,15,18,32,11.30
2020,03,15,18,33,14.50
2020,03,15,18,34,8.10
2020,03,15,18,35,12.90
2020,03,15,18,36,8.10
2020,03,15,18,37,6.40
2020,03,15,18,38,11.30
2020,03,15,18,39,11.30
2020,03,15,18,40,14.50
2020,03,15,18,41,8.10
2020,03,15,18,42,8.10
2020,03,15,18,43,9.60
2020,03,15,18,44,6.40
2020,03,15,18,45,4.80
2020,03,15,18,46,3.20
2020,03,15,18,47,3.20
2020,03,15,18,48,1.60
2020,03,15,18,49,1.60
2020,03,15,18,50,4.80
2020,03,15,18,51,3.20
2020,03,15,18,52,4.80
2020,03,15,18,53,1.60
2020,03,15,18,54,1.60
2020,03,15,18,55,6.40
2020,03,15,18,56,8.10
2020,03,15,18,57,9.60
2020,03,15,18,58,11.30
2020,03,15,18,59,8.10
2020,03,15,19,00,8.10
2020,03,15,19,01,6.40
2020,03,15,19,02,6.40
2020,03,15,19,03,6.40
2020,03,15,19,04,1.60
2020,03,15,19,05,3.20
2020,03,15,19,06,3.20
2020,03,15,19,07,4.80
2020,03,15,19,08,4.80
2020,03,15,19,11,3.20
2020,03,15,19,12,4.80
2020,03,15,19,13,6.40
2020,03,15,19,14,6.40
2020,03,15,19,15,6.40
2020,03,15,19,16,4.80
2020,03,15,19,17,4.80
2020,03,15,19,18,3.20
2020,03,15,19,19,3.20
2020,03,15,19,20,3.20
2020,03,15,19,21,3.20
2020,03,15,19,22,3.20
2020,03,15,19,23,3.20
2020,03,15,19,24,3.20
2020,03,15,19,25,4.80
2020,03,15,19,26,3.20
2020,03,15,19,27,3.20
2020,03,15,19,28,4.80
2020,03,15,19,29,3.20
2020,03,15,19,30,6.40
2020,03,15,19,31,4.80
2020,03,15,19,32,3.20
2020,03,15,19,33,3.20
2020,03,15,19,34,4.80
2020,03,15,19,35,4.80
2020,03,15,19,36,6.40
2020,03,15,19,37,6.40
2020,03,15,19,38,4.80
2020,03,15,19,39,6.40
2020,03,15,19,40,4.80
2020,03,15,19,41,6.40
2020,03,15,19,42,4.80
2020,03,15,19,43,4.80
2020,03,15,19,44,3.20
2020,03,15,19,45,3.20
2020,03,15,19,46,3.20
2020,03,15,19,47,3.20
2020,03,15,19,56,1.60
2020,03,15,19,57,1.60
2020,03,15,19,58,3.20
2020,03,15,19,59,1.60
2020,03,15,20,04,1.60
2020,03,15,20,05,1.60
2020,03,15,20,06,3.20
2020,03,15,20,07,3.20
2020,03,15,20,08,1.60
2020,03,15,20,09,1.60
2020,03,15,20,17,3.20
2020,03,15,20,18,1.60
2020,03,15,20,19,1.60
2020,03,15,20,31,3.20
2020,03,15,20,32,3.20
2020,03,15,20,33,1.60
2020,03,15,20,34,3.20
2020,03,15,20,47,1.60
2020,03,15,23,52,3.20
2020,03,15,23,53,3.20
2020,03,15,23,54,3.20
